CW1353 Weather Reports


Display with metric or nautical units.
time (UTC)temp
F
wind
direction
speed
MPH
gust
MPH
rain 1hr
in
rain 24hr
in
rain mn
in
humidity
%
barometer
mb
20260510192041 82 201 2.0 6.0 0.00 0.13 0.01 76 1017.2
20260510191034 82 159 2.0 6.0 0.00 0.13 0.01 76 1017.2
20260510190058 82 205 2.0 6.0 0.00 0.13 0.01 77 1017.3
20260510185031 83 223 4.0 8.0 0.00 0.13 0.01 74 1017.4
20260510184101 82 123 4.0 9.0 0.00 0.13 0.01 78 1017.6
20260510183100 81 155 2.0 5.0 0.00 0.13 0.01 75 1017.9
20260510182039 81 232 2.0 7.0 0.00 0.13 0.01 77 1017.7
20260510181030 81 173 2.0 7.0 0.00 0.13 0.01 78 1018.0
20260510180039 81 167 3.0 6.0 0.00 0.13 0.01 80 1018.0
20260510175051 80 203 1.0 6.0 0.00 0.13 0.01 81 1018.3
20260510174041 79 102 3.0 7.0 0.00 0.13 0.01 81 1018.4
20260510173031 79 65 1.0 6.0 0.00 0.13 0.01 80 1018.5
20260510172041 79 94 3.0 5.0 0.01 0.13 0.01 82 1018.6
20260510171029 78 5 2.0 5.0 0.01 0.13 0.01 84 1018.6
20260510170049 78 138 2.0 7.0 0.01 0.24 0.01 85 1018.7
20260510165059 78 39 3.0 6.0 0.01 0.24 0.01 83 1019.0
20260510164030 78 360 1.0 7.0 0.01 0.24 0.01 83 1018.9
20260510163109 78 9 1.0 6.0 0.01 0.24 0.01 83 1018.8
20260510162057 77 345 2.0 6.0 0.00 0.23 0.00 85 1018.7
20260510161045 77 322 2.0 5.0 0.00 0.23 0.00 86 1018.7
20260510160038 76 332 1.0 7.0 0.00 0.48 0.00 87 1018.6
20260510155028 76 105 3.0 6.0 0.00 0.48 0.00 88 1018.6
20260510154047 75 29 1.0 5.0 0.00 0.48 0.00 88 1018.8
20260510153036 74 340 2.0 7.0 0.00 0.48 0.00 90 1019.0
20260510152107 74 65 1.0 6.0 0.00 0.48 0.00 91 1018.7
20260510151036 73 55 2.0 6.0 0.00 0.48 0.00 91 1018.6
20260510150054 73 360 1.0 5.0 0.00 0.71 0.00 94 1018.7
20260510145043 72 34 1.0 5.0 0.00 0.71 0.00 96 1018.9
20260510144032 71 34 0.0 4.0 0.00 0.71 0.00 99 1019.0
20260510143037 70 26 1.0 5.0 0.00 0.71 0.00 100 1019.0
20260510142055 69 116 1.0 6.0 0.00 0.71 0.00 100 1018.9
20260510141043 68 45 0.0 4.0 0.00 0.71 0.00 100 1018.9
20260510140055 68 324 1.0 4.0 0.00 0.85 0.00 100 1018.8
20260510135046 67 83 0.0 2.0 0.00 0.85 0.00 100 1018.7
20260510134039 67 83 1.0 4.0 0.00 0.85 0.00 100 1018.7
20260510133030 67 53 0.0 4.0 0.00 0.85 0.00 100 1018.5
20260510132055 67 53 1.0 5.0 0.00 0.85 0.00 100 1018.5
20260510131045 66 33 0.0 2.0 0.00 0.85 0.00 100 1018.4
20260510130057 66 32 1.0 2.0 0.00 0.86 0.00 100 1018.3
20260510125029 65 30 0.0 2.0 0.00 0.86 0.00 100 1018.3
20260510124047 65 30 0.0 1.0 0.00 0.86 0.00 100 1018.3
20260510123038 65 74 1.0 3.0 0.00 0.86 0.00 100 1018.1
20260510122029 65 82 0.0 1.0 0.00 0.86 0.00 100 1018.0
20260510121040 65 82 0.0 2.0 0.00 0.86 0.00 100 1017.7
20260510120030 65 72 1.0 3.0 0.00 0.87 0.00 100 1017.5
20260510115041 65 72 0.0 1.0 0.00 0.87 0.00 100 1017.3
20260510114033 65 72 0.0 4.0 0.00 0.87 0.00 100 1017.2
20260510113055 65 72 0.0 5.0 0.00 0.87 0.00 100 1017.0
20260510112046 65 72 0.0 0.0 0.00 0.87 0.00 100 1016.8
20260510111040 65 72 0.0 0.0 0.00 0.87 0.00 100 1016.9
20260510110047 65 72 0.0 0.0 0.00 0.88 0.00 100 1016.8
20260510105033 65 72 0.0 0.0 0.00 0.88 0.00 100 1016.7
20260510104044 65 72 0.0 2.0 0.00 0.88 0.00 100 1016.4
20260510103033 65 73 0.0 0.0 0.00 0.88 0.00 100 1016.3
20260510102053 65 73 0.0 0.0 0.00 0.88 0.00 100 1016.1
20260510101041 64 73 0.0 0.0 0.00 0.88 0.00 100 1016.1
20260510100034 64 73 0.0 1.0 0.00 0.89 0.00 100 1016.1
20260510095029 64 73 0.0 0.0 0.00 0.89 0.00 100 1015.9
20260510094042 64 73 0.0 2.0 0.00 0.89 0.00 100 1016.0
20260510093104 65 73 1.0 4.0 0.00 0.89 0.00 100 1015.9
20260510092032 65 74 0.0 0.0 0.00 0.89 0.00 100 1015.7
20260510091112 65 74 0.0 1.0 0.00 0.89 0.00 100 1015.4
20260510090043 65 74 0.0 0.0 0.00 0.91 0.00 100 1015.3
20260510085032 65 74 0.0 2.0 0.00 0.91 0.00 100 1015.1
20260510084043 65 74 0.0 1.0 0.00 0.91 0.00 100 1015.1
20260510083054 65 74 0.0 4.0 0.00 0.91 0.00 100 1015.0
20260510082052 66 76 0.0 1.0 0.00 0.91 0.00 100 1015.1
20260510081044 66 76 0.0 2.0 0.00 0.91 0.00 100 1014.9
20260510080058 66 78 0.0 0.0 0.00 0.95 0.00 100 1014.9
20260510075026 66 78 0.0 0.0 0.00 0.95 0.00 100 1014.4
20260510074047 66 78 0.0 4.0 0.00 0.95 0.00 100 1014.3
20260510073056 66 77 0.0 0.0 0.00 0.95 0.00 100 1014.7
20260510072030 66 77 0.0 0.0 0.00 0.95 0.00 100 1014.6
20260510071041 66 77 0.0 1.0 0.00 0.95 0.00 100 1014.9
20260510065036 66 77 0.0 0.0 0.00 0.95 0.00 100 1014.6
20260510064028 66 77 0.0 1.0 0.00 0.95 0.00 100 1014.6
20260510063034 66 77 0.0 0.0 0.00 0.95 0.00 100 1014.6
20260510062026 66 77 0.0 0.0 0.00 0.95 0.00 100 1014.5
20260510061040 66 77 0.0 0.0 0.00 0.95 0.00 100 1014.3
20260510060031 66 77 0.0 1.0 0.00 0.96 0.00 100 1014.5
20260510055052 66 77 0.0 0.0 0.00 0.96 0.00 100 1014.6
20260510054045 66 77 0.0 1.0 0.00 0.96 0.00 100 1014.7
20260510053035 67 77 0.0 2.0 0.00 0.96 0.00 100 1014.7
20260510052026 67 76 0.0 4.0 0.00 0.96 0.00 100 1014.8
20260510051036 67 76 2.0 4.0 0.00 0.96 0.00 100 1015.0
20260510050114 67 73 1.0 4.0 0.00 0.96 0.96 100 1015.3
20260510045040 67 226 0.0 1.0 0.00 0.96 0.96 100 1015.3
20260510044033 67 226 0.0 1.0 0.00 0.96 0.96 100 1015.4
20260510043045 67 226 0.0 0.0 0.00 0.96 0.96 100 1015.5
20260510042036 67 226 0.0 2.0 0.00 0.96 0.96 100 1015.7
20260510041029 67 225 0.0 4.0 0.00 0.96 0.96 100 1015.9
20260510040051 67 225 0.0 2.0 0.00 0.96 0.96 100 1016.2
20260510035103 67 225 0.0 1.0 0.00 0.96 0.96 100 1016.4
20260510034032 67 224 1.0 4.0 0.00 0.96 0.96 100 1015.4
20260510033044 67 101 1.0 4.0 0.00 0.96 0.96 100 1015.3
20260510032036 67 101 1.0 2.0 0.00 0.96 0.96 100 1015.6
20260510031027 67 101 0.0 0.0 0.00 0.96 0.96 100 1015.7
20260510030043 67 101 0.0 0.0 0.00 0.97 0.96 100 1015.9
20260510025034 67 101 0.0 0.0 0.00 0.97 0.96 100 1015.7
20260510024044 67 101 0.0 1.0 0.00 0.97 0.96 100 1015.6
20260510023059 67 101 0.0 2.0 0.00 0.97 0.96 100 1015.3
20260510022029 67 101 1.0 3.0 0.00 0.97 0.96 100 1014.7
20260510021047 68 253 0.0 0.0 0.00 0.97 0.96 100 1015.0
20260510020100 68 254 0.0 1.0 0.00 1.01 0.96 100 1014.9
20260510015026 68 254 0.0 0.0 0.00 1.01 0.96 100 1015.2
20260510014036 68 254 0.0 0.0 0.00 1.01 0.96 100 1015.6
20260510013100 68 254 0.0 0.0 0.01 1.01 0.96 100 1015.1
20260510012031 68 254 0.0 1.0 0.01 1.01 0.96 100 1014.8
20260510011028 68 253 0.0 2.0 0.01 1.01 0.96 100 1014.7
20260510010050 68 253 1.0 2.0 0.01 1.01 0.96 100 1014.8
20260510005045 68 254 0.0 2.0 0.01 1.01 0.96 100 1014.9
20260510004059 68 254 0.0 0.0 0.01 1.01 0.96 100 1015.0
20260510003032 68 254 0.0 1.0 0.00 1.00 0.95 100 1015.1
20260510002053 68 254 1.0 5.0 0.00 1.00 0.95 100 1015.4
20260510001041 68 230 2.0 3.0 0.01 1.00 0.95 100 1015.0
20260510000033 68 74 0.0 2.0 0.02 1.00 0.95 100 1014.1
20260509235027 68 74 0.0 4.0 0.03 1.00 0.95 100 1013.6
20260509234037 68 87 0.0 1.0 0.04 1.00 0.95 100 1013.3
20260509233030 68 144 0.0 0.0 0.05 1.00 0.95 100 1013.8
20260509232049 68 254 0.0 0.0 0.06 1.00 0.95 99 1014.3
20260509231041 68 254 0.0 0.0 0.05 0.99 0.94 100 1014.1
20260509230033 68 253 0.0 2.0 0.05 1.03 0.93 100 1013.6
20260509225025 68 49 0.0 4.0 0.04 1.02 0.92 99 1013.1
20260509224038 68 122 1.0 6.0 0.03 1.01 0.91 99 1013.3
20260509223029 69 140 1.0 5.0 0.03 1.00 0.90 99 1013.3
20260509222039 69 244 0.0 0.0 0.02 0.99 0.89 99 1013.7
20260509221042 69 244 0.0 0.0 0.03 0.99 0.89 99 1013.9
20260509220111 69 137 0.0 0.0 0.02 1.13 0.88 99 1013.5
20260509215034 69 137 0.0 0.0 0.03 1.13 0.88 99 1013.9
20260509214044 69 138 0.0 4.0 0.04 1.13 0.88 99 1013.9
20260509213040 69 211 0.0 2.0 0.03 1.12 0.87 99 1014.0
20260509212029 69 212 0.0 2.0 0.03 1.12 0.87 99 1014.2
20260509211051 69 169 0.0 4.0 0.02 1.11 0.86 99 1013.9
20260509210043 69 292 0.0 4.0 0.02 1.49 0.86 99 1013.8
20260509205033 69 286 1.0 3.0 0.01 1.48 0.85 99 1013.2
20260509204026 69 166 1.0 5.0 0.00 1.47 0.84 99 1013.4
20260509203057 69 168 2.0 7.0 0.00 1.47 0.84 98 1013.0
20260509202033 69 155 2.0 7.0 0.00 1.47 0.84 99 1013.2